Location: Grand Lay
(47.3253°N, 0.9468°E)
Time: 20:19:07
(UTC+00:00)

Cosmos 1328 - Pass Details

Date: 18 January 2026
Orbit: 460 x 472 km, 82.5° (Epoch: 14 February)

Event Time Altitude Azimuth Distance (km) Brightness Sun altitude
Exits shadow 06:01:05 - 354° (N) 2,294 6.8 -15.8°
Reaches altitude 10° 06:02:39 10° 357° (N) 1,647 6.1 -15.6°
Maximum altitude 06:06:12 61° 79° (ENE) 546 4.0 -15.0°
Drops below altitude 10° 06:09:45 10° 160° (SSE) 1,639 6.7 -14.4°
Sets 06:11:51 0° 164° (SSE) 2,513 7.6 -14.1°
